User: anonymous   Login
Location: Caltech
(34.1382°N, 118.1253°W)
Time: 05:32:35
(UTC-07:00)
Language:

Oscar 10/S400 - Orbit

View from above orbital plane
View from above orbital plane
View from above satellite
View from above satellite

Ground track
Ground track

The orbit data is extracted from the following two-line orbital elements,

1 14129U 83058B   15112.47572824  .00000082  00000-0  00000+0 0  9999
2 14129 025.8086 163.0113 6080144 091.3361 008.6575 02.05867597211610
Epoch (UTC): 22 April 2015 11:25:02
Eccentricity: 0.6080144
inclination: 25.8086°
perigee height: 3853 km
apogee height: 35594 km
right ascension of ascending node: 163.0113°
argument of perigee: 91.3361°
revolutions per day: 2.05867597
mean anomaly at epoch: 8.6575°
orbit number at epoch: 21161

The dashed part of the orbit path shows where the satellite is in the earth's shadow,  

DLR